Theta_e
284 286 287 288 289 289 290 290 290 290 290 289 289 288 288 288 288 289 289 290 291 291 292 293 293 294 294 294 294 294 295 296 296 297 298 299 299 300 302 304 305 307 308 309 311 313 314 315 315 315 314 313 313 313 313 313 313 313 313 313 314 315 315 316 316 317 319 323 324
284 285 287 288 289 289 289 289 289 289 289 289 288 288 288 288 289 289 289 290 291 291 292 292 292 292 293 293 293 294 295 295 296 297 298 298 299 300 301 303 305 306 308 309 311 312 313 314 314 314 313 312 312 312 312 312 312 312 312 311 312 313 313 313 313 313 315 317 320
284 285 287 288 288 288 288 288 288 288 288 288 288 288 288 289 289 289 290 290 291 291 291 291 291 292 292 292 293 294 295 295 296 297 297 298 299 300 301 302 304 306 307 309 310 311 312 313 313 313 312 311 310 310 310 310 311 311 310 310 310 311 311 311 311 312 313 315 315
284 285 286 287 287 287 287 287 288 288 288 288 288 289 289 289 289 289 290 290 290 290 290 290 290 291 291 292 293 294 295 296 297 297 297 298 299 299 301 302 303 305 306 308 309 310 311 312 312 312 311 310 310 310 309 310 310 309 309 309 309 310 310 310 310 310 312 312 313
284 286 286 287 287 287 287 287 287 288 288 288 289 289 289 289 289 289 289 290 289 289 289 289 290 290 291 292 293 294 295 296 297 297 298 298 298 299 300 301 302 304 306 307 308 310 311 311 311 310 310 310 309 309 308 308 308 308 308 308 308 308 308 308 308 309 310 310 311
284 285 286 287 287 287 287 287 288 288 288 289 289 289 289 289 289 289 289 289 289 289 289 289 290 291 292 293 294 295 295 296 297 297 297 298 298 299 300 301 302 304 305 307 308 309 310 310 310 309 309 309 308 308 308 308 307 307 306 307 307 307 307 307 307 308 308 308 308
284 285 286 286 287 287 287 288 288 288 288 289 289 289 289 289 289 289 289 289 289 289 290 291 291 292 293 294 294 295 296 297 297 297 298 298 298 299 299 300 302 303 305 306 307 308 309 309 308 308 308 308 308 307 307 308 307 306 306 305 306 306 306 306 306 306 307 307 306
284 284 285 286 287 287 287 288 288 288 288 288 289 289 289 289 289 289 289 289 289 290 290 291 292 292 293 294 295 296 296 296 297 297 298 298 298 299 299 300 302 303 304 306 307 307 308 308 308 307 306 306 306 306 306 306 306 306 305 304 304 305 305 305 305 306 306 305 305
281 281 282 285 286 287 287 287 287 287 288 288 289 289 289 289 289 289 290 290 290 291 291 291 292 293 294 295 295 296 296 296 297 297 298 298 298 299 300 300 302 303 304 305 305 306 307 307 306 306 306 306 305 305 305 305 305 304 304 304 304 304 304 304 304 304 304 304 303
280 280 280 281 282 283 283 284 286 287 288 288 289 290 290 290 290 290 290 290 291 291 291 292 292 293 294 295 295 295 295 296 297 298 298 299 299 299 300 301 302 303 304 304 305 305 306 306 305 304 304 304 304 304 304 304 303 303 303 303 303 303 303 303 303 303 303 303 303
280 280 280 280 280 281 281 282 285 287 288 289 289 289 289 290 290 290 291 291 291 291 292 292 292 292 293 294 294 295 295 296 297 297 298 299 299 300 300 301 302 303 303 303 303 304 304 305 304 304 303 304 304 304 304 303 303 303 302 302 302 301 302 302 302 303 303 302 302
281 281 281 281 281 281 281 282 286 287 287 288 288 289 289 290 290 291 291 291 291 291 291 292 292 292 292 293 294 294 295 295 296 297 297 298 299 300 301 302 302 303 303 302 302 303 303 304 303 303 303 303 303 303 303 303 302 302 301 301 301 301 300 301 301 301 301 301 301
282 282 281 281 281 281 282 282 284 285 285 286 288 289 289 290 291 291 291 291 291 291 291 291 291 291 292 293 294 294 294 295 295 296 297 298 299 300 301 302 302 303 302 301 301 302 302 302 302 301 301 302 302 302 302 302 302 301 301 301 300 300 299 299 300 300 300 300 300
282 282 282 282 282 282 282 283 284 284 285 287 288 289 289 290 290 290 290 290 290 290 290 290 291 292 292 293 293 294 294 294 295 295 296 297 298 300 301 302 302 302 302 301 300 301 301 301 301 301 301 301 301 301 301 301 300 300 300 299 299 299 298 298 299 299 299 299 299
282 282 282 282 282 283 283 283 284 285 286 288 288 289 289 289 290 290 290 290 290 290 291 291 291 291 292 293 293 293 293 294 295 295 296 297 298 299 300 301 301 301 301 300 300 300 300 300 300 300 300 300 299 299 298 298 297 297 297 298 298 297 297 297 297 298 298 298 298
282 282 282 282 283 283 283 283 284 285 286 288 288 289 289 289 289 289 289 290 290 290 291 291 291 291 291 292 293 293 293 294 294 295 295 296 297 298 299 300 301 301 300 299 299 299 299 299 299 298 298 298 297 296 296 295 295 294 295 295 296 296 296 296 296 297 297 297 297
282 282 282 282 283 283 284 284 285 285 286 287 288 288 288 288 288 289 289 290 290 290 291 290 290 291 291 291 292 293 293 293 294 294 295 296 297 297 298 299 300 300 299 299 299 298 298 297 297 297 296 296 295 294 294 293 293 293 293 293 294 295 295 296 296 296 296 297 297
282 282 282 283 283 284 284 284 284 285 285 286 287 288 288 288 288 289 289 290 290 290 290 290 290 290 290 290 291 292 293 293 293 294 295 296 296 297 298 299 300 299 299 299 298 298 297 296 296 296 295 294 294 293 293 293 292 292 292 292 293 293 294 294 295 295 296 296 297
282 282 283 284 284 284 284 284 284 284 285 286 287 287 288 288 289 289 289 290 290 290 290 290 290 290 290 290 291 292 292 293 294 294 295 295 296 297 298 299 299 299 299 298 298 297 296 296 295 295 295 294 293 293 292 292 291 291 291 291 292 292 293 293 293 294 294 295 296
282 282 283 284 284 284 284 284 284 284 285 286 287 287 288 288 289 289 289 290 290 290 290 290 290 290 290 290 291 291 292 293 293 294 294 295 296 297 298 298 298 298 298 298 297 296 296 296 295 295 294 294 293 293 292 292 291 291 291 291 291 292 292 293 293 293 293 294 295
282 282 283 284 284 284 283 283 283 284 285 286 287 287 288 289 289 289 289 289 290 290 290 290 290 290 290 290 290 291 292 293 293 294 294 295 296 297 298 298 298 298 298 297 296 296 296 295 295 295 294 294 293 293 292 292 292 291 291 291 291 291 292 293 294 293 293 293 294
282 283 284 284 284 283 283 283 284 285 286 287 287 288 288 288 289 289 289 290 290 290 290 290 290 290 291 291 291 291 292 293 293 294 294 295 296 297 297 298 298 298 297 297 296 296 295 295 295 295 294 294 293 293 293 292 292 291 291 291 291 291 291 292 293 293 293 293 294
283 283 284 284 283 283 284 284 285 286 287 287 287 287 287 288 288 289 289 290 290 290 290 291 291 291 291 291 291 292 292 292 293 293 294 295 295 296 297 297 297 297 297 297 296 296 295 295 295 294 294 294 293 293 293 293 292 292 291 291 291 291 291 291 291 292 293 294 294
283 283 283 283 283 283 283 284 285 286 286 287 287 287 287 288 289 289 289 290 290 290 290 291 291 291 291 292 292 292 292 292 292 293 294 295 295 296 296 297 297 297 296 296 296 296 295 295 294 294 294 293 293 293 293 293 292 292 292 291 291 291 291 291 291 292 292 294 295
283 283 283 283 283 283 283 284 285 286 286 287 287 287 288 288 289 289 290 290 290 290 291 291 291 291 292 292 292 292 292 292 292 293 294 294 295 295 296 296 296 296 296 297 298 298 297 296 295 294 294 293 293 292 292 292 292 292 292 291 291 291 291 291 291 291 292 293 294
282 282 282 282 283 283 284 284 285 285 286 287 287 288 288 288 289 289 290 290 290 290 291 291 291 292 292 292 293 293 293 293 293 293 294 294 295 295 295 295 296 296 297 298 299 299 298 298 297 295 294 293 293 292 292 291 291 291 291 291 291 291 291 290 291 291 291 292 292
282 282 282 283 283 283 284 284 285 286 286 287 287 288 288 289 289 289 290 290 290 290 291 291 291 292 293 293 293 292 292 292 293 293 294 294 294 295 295 295 296 296 297 299 300 300 300 299 298 296 294 293 292 292 291 291 291 290 290 290 290 290 290 289 289 290 290 290 291
282 282 282 283 283 284 284 284 285 286 286 287 287 288 288 289 289 289 289 290 290 290 290 291 291 292 292 292 292 292 292 292 293 293 294 294 294 295 295 295 296 297 299 300 301 300 300 299 298 297 295 293 292 291 291 290 290 290 289 289 289 288 288 288 288 289 289 289 290
281 282 282 283 283 284 284 285 285 286 286 287 287 288 288 288 289 289 289 289 289 290 290 290 291 292 291 291 292 292 292 292 293 293 293 294 294 294 295 295 296 297 299 301 301 301 300 299 298 297 296 294 292 291 291 290 290 289 289 288 288 287 287 287 287 288 288 288 288
281 281 282 283 283 284 284 285 285 286 286 287 287 287 288 288 288 288 288 289 289 289 290 290 291 291 291 291 291 292 292 292 293 293 293 294 294 294 295 296 296 298 300 302 301 300 299 299 298 297 296 294 293 291 290 290 289 288 288 287 286 286 286 286 286 286 287 287 287
281 281 282 283 284 284 284 284 285 285 286 287 287 287 287 287 287 288 288 288 289 290 290 290 290 290 290 291 291 291 292 292 292 293 293 293 295 295 295 296 297 298 301 302 301 300 299 299 298 297 296 295 293 291 290 289 289 288 287 286 286 285 285 285 286 286 286 287 287
280 281 282 283 284 284 284 284 285 285 286 286 286 286 286 286 287 287 288 288 289 289 289 289 289 289 290 290 291 291 291 292 292 293 293 293 294 294 295 296 297 299 301 302 301 300 299 298 297 296 295 294 292 290 289 289 288 287 287 286 286 286 286 286 286 286 286 286 287
280 281 282 283 283 284 284 284 285 285 286 286 285 285 285 286 286 287 287 288 288 288 288 288 288 289 289 290 290 291 291 292 292 293 294 294 294 295 296 297 298 299 301 301 300 299 298 298 297 296 295 293 291 290 289 288 288 287 287 286 286 286 286 286 286 286 286 286 287
280 281 282 283 283 284 284 284 285 285 285 285 285 285 285 285 285 286 287 288 288 288 288 288 288 289 289 289 290 290 291 292 292 292 293 293 294 295 296 297 298 299 300 300 299 299 298 297 296 295 294 292 290 289 288 288 287 287 287 286 286 286 286 286 286 286 286 286 287
281 281 282 283 283 284 284 284 285 285 285 285 285 285 285 285 285 286 287 288 288 288 287 288 288 289 289 289 290 290 291 291 291 292 293 294 295 296 296 297 298 299 300 299 299 298 297 296 295 294 293 291 289 288 288 287 287 287 287 287 287 287 287 287 287 287 287 287 287
282 282 282 282 283 284 284 284 285 285 285 285 285 285 285 284 285 285 286 288 287 287 287 287 288 288 288 288 289 289 290 290 291 292 293 294 294 294 295 296 297 298 299 299 298 297 296 295 294 293 292 290 289 288 288 287 287 287 287 287 286 287 287 287 287 287 288 288 288
282 282 283 283 283 283 284 284 285 285 285 285 285 285 284 284 284 285 286 287 286 286 286 287 287 287 287 287 288 288 289 290 291 291 292 293 293 293 293 294 295 296 298 298 297 296 296 295 294 293 291 289 288 288 288 288 287 287 286 286 286 286 286 287 287 287 288 288 288
282 283 283 283 283 284 284 284 285 285 285 285 285 284 284 284 284 284 285 287 285 285 286 286 286 286 287 287 287 288 288 289 290 291 291 291 292 292 292 292 293 295 296 297 297 296 295 295 294 292 291 289 288 288 288 288 287 287 286 286 286 285 286 286 287 287 288 289 290
283 283 283 283 283 284 284 285 285 285 285 285 285 284 283 283 284 284 285 286 285 285 285 285 286 286 287 287 287 287 287 288 289 289 290 290 291 292 292 291 292 294 295 296 296 296 295 295 294 292 291 289 288 288 288 287 287 287 287 287 286 286 286 286 287 287 288 289 291
282 283 283 283 284 284 284 285 285 285 285 285 285 284 283 283 284 284 285 285 285 285 285 285 285 286 287 288 287 286 286 286 287 288 289 289 290 291 291 290 291 292 294 296 296 296 295 295 294 292 291 289 288 288 288 287 287 287 287 287 287 287 287 287 287 287 287 288 290
282 282 283 283 283 284 285 285 285 285 285 285 285 284 284 284 284 283 283 283 283 284 285 285 285 285 286 287 286 285 285 285 285 286 287 288 289 290 290 289 290 291 292 294 295 295 295 294 293 292 291 289 288 288 288 287 287 286 286 286 287 287 287 287 287 287 287 287 287
Wind_Speed
2 1 1 2 3 4 4 3 3 3 3 3 4 4 4 5 5 5 5 5 5 6 6 6 6 7 8 10 11 12 13 13 13 13 13 12 12 13 13 13 12 11 11 10 9 7 6 5 3 2 2 3 3 4 4 3 4 4 5 5 5 5 5 4 4 3 2 2 3
2 2 2 3 3 4 4 3 3 3 3 3 4 4 4 4 5 5 5 5 5 6 6 6 6 7 9 11 11 12 12 13 13 13 12 12 12 12 12 12 12 12 11 10 9 7 5 5 4 2 2 3 3 4 4 4 4 4 5 6 5 4 4 4 3 3 3 2 2
2 2 2 2 3 3 4 3 3 4 4 4 4 4 4 4 5 5 5 5 5 6 6 6 6 8 9 11 11 11 11 12 13 12 12 11 11 12 12 12 12 12 11 10 9 7 5 4 4 3 2 2 3 3 3 4 4 4 4 5 4 3 3 3 3 3 2 1 2
2 2 2 3 3 4 4 4 4 4 4 4 4 4 4 4 4 4 5 5 6 6 6 6 6 7 8 10 11 11 11 12 13 12 12 11 12 12 12 12 12 12 11 10 9 7 6 4 3 2 2 3 3 3 3 3 3 3 3 3 2 2 2 2 3 3 2 1 2
3 2 2 3 4 4 4 4 5 5 5 4 4 4 4 4 4 4 5 5 5 5 5 6 6 7 8 9 11 11 11 11 12 11 11 11 11 12 12 12 12 11 10 10 9 7 5 3 2 2 2 2 2 2 2 2 2 2 2 2 2 2 2 2 3 3 2 2 2
3 2 2 3 4 4 4 4 5 5 5 5 5 5 5 4 5 5 5 5 6 6 6 7 8 8 9 10 10 10 10 10 10 9 10 10 11 11 12 12 12 11 10 9 9 7 5 2 1 1 1 1 1 1 1 2 1 1 1 1 1 2 2 2 3 3 3 3 3
3 3 3 4 5 5 5 5 5 5 5 5 6 6 6 6 6 7 7 7 7 6 7 7 8 8 8 9 9 9 9 9 9 9 9 9 10 10 11 11 11 11 10 9 9 7 5 2 1 1 1 1 0 1 1 1 1 1 2 1 1 2 2 2 2 3 3 4 4
3 3 4 5 5 6 6 5 5 5 5 5 5 6 7 7 7 8 8 7 7 7 7 6 7 8 9 9 9 9 9 9 10 9 9 8 9 10 11 11 11 10 10 9 8 7 5 2 1 0 1 1 0 1 1 2 2 2 2 2 1 1 2 2 2 2 3 4 5
3 3 3 4 5 6 6 6 6 6 6 6 6 7 7 7 8 8 7 7 7 7 7 7 8 9 10 10 9 8 8 9 10 10 9 8 9 9 9 9 10 10 9 8 7 6 5 2 0 0 0 0 0 1 1 2 2 2 2 2 1 1 1 2 2 3 3 4 5
3 3 3 4 5 5 6 5 6 7 7 7 7 7 8 8 8 7 6 6 6 7 7 8 9 10 10 9 9 8 8 9 9 10 10 9 9 9 9 8 9 9 8 7 6 5 4 2 0 0 0 1 1 2 2 2 2 3 2 1 1 1 1 2 3 3 3 4 4
4 4 3 4 5 5 5 5 6 6 6 6 6 7 7 8 7 7 7 6 7 7 8 9 10 10 10 9 8 8 8 8 9 10 10 10 10 9 9 8 9 8 8 7 5 4 3 2 1 1 1 1 2 2 2 2 2 2 2 1 1 1 1 2 3 3 3 3 3
4 4 4 4 5 5 5 5 5 5 5 6 6 6 6 6 7 7 7 7 7 8 8 9 10 10 10 8 8 8 8 8 9 10 11 11 10 10 9 9 9 8 7 6 4 3 3 2 1 2 2 2 2 2 2 2 2 2 1 0 0 1 1 2 3 3 3 2 2
4 4 4 5 5 5 4 5 4 4 4 5 5 6 6 6 7 7 8 7 8 8 8 8 9 9 9 8 8 8 8 8 9 10 10 11 11 10 9 9 8 7 6 5 4 3 3 2 2 3 3 3 2 2 2 2 2 2 2 1 0 1 2 3 3 3 3 3 2
5 5 5 5 5 4 4 4 4 4 4 5 6 6 6 6 7 7 7 7 7 8 8 8 8 8 8 8 8 8 8 8 9 10 10 11 10 10 10 9 8 6 5 3 3 3 3 2 2 3 3 3 2 2 2 2 2 2 2 1 1 1 2 3 4 4 4 3 2
5 5 5 4 4 4 4 4 4 4 4 6 6 7 7 6 7 7 8 8 8 7 7 7 7 7 8 8 9 9 9 9 9 9 10 10 10 10 10 9 8 5 4 3 3 3 2 2 1 2 3 3 3 2 2 2 2 2 2 1 1 1 2 3 3 4 4 3 2
5 5 5 4 4 4 4 4 4 4 5 6 7 7 7 7 7 7 8 8 7 6 6 7 7 7 7 8 9 9 9 9 9 9 9 9 10 10 10 10 7 5 3 2 2 2 1 0 1 1 2 3 3 3 3 3 3 2 2 2 1 1 2 2 3 3 3 3 2
5 5 5 4 5 5 5 5 4 4 5 6 7 7 7 7 7 7 8 9 7 6 7 7 7 7 7 8 8 8 8 8 8 8 8 8 9 10 10 10 6 4 2 2 1 1 1 1 1 2 2 3 3 4 4 4 4 3 3 2 2 2 1 2 2 3 3 2 2
5 5 5 5 5 5 6 6 6 6 6 7 8 8 8 7 8 8 8 8 8 8 8 8 8 8 8 9 8 7 7 7 8 8 8 8 9 10 10 9 5 3 2 1 1 1 1 2 2 2 3 3 3 4 4 4 4 4 4 3 3 2 2 2 2 2 2 2 2
5 5 5 6 6 6 6 7 7 7 7 7 8 8 8 8 9 9 8 8 8 8 8 9 8 8 9 9 9 8 7 7 8 8 9 9 9 10 9 8 4 2 1 1 1 2 2 2 3 3 3 3 3 4 4 5 5 4 4 4 3 3 3 2 2 2 2 2 2
5 5 6 6 6 6 7 7 7 7 7 7 8 8 9 9 9 9 9 9 8 8 8 8 8 8 9 9 9 9 8 7 7 8 9 9 9 9 9 7 3 1 1 2 2 2 3 3 4 4 4 4 4 4 4 5 5 5 4 3 3 3 4 3 2 2 2 2 2
6 6 6 6 6 6 6 6 7 7 7 8 8 9 9 9 9 9 9 9 8 8 8 8 8 8 9 9 9 9 8 6 7 7 8 9 9 9 8 6 3 1 2 2 2 3 3 4 4 4 4 4 4 4 5 5 5 5 4 3 3 4 4 4 3 3 3 2 2
6 6 7 6 6 6 6 6 7 7 7 8 8 9 9 9 9 9 8 8 8 8 8 8 8 8 8 8 9 9 8 7 6 7 7 8 8 8 7 5 2 2 2 3 3 3 4 4 4 5 5 4 5 5 5 5 5 5 4 4 4 4 4 4 4 4 3 3 2
6 6 6 5 5 5 6 6 7 7 7 7 8 8 9 9 9 9 8 8 7 7 7 7 7 7 8 8 8 8 8 7 7 7 7 8 8 7 6 4 2 2 2 3 3 3 4 4 4 5 5 5 5 5 6 5 5 5 5 5 5 5 5 5 5 5 4 4 3
6 6 5 4 4 5 5 6 6 7 7 7 8 8 9 9 9 8 8 7 7 7 7 7 7 7 7 7 7 7 7 8 8 8 8 7 7 6 4 3 1 1 2 2 3 4 4 4 4 4 4 5 5 5 5 5 5 5 5 6 5 5 5 5 6 5 5 5 4
6 5 4 3 4 4 5 6 6 7 7 7 8 8 9 9 8 8 7 7 7 7 7 7 7 7 7 7 6 6 6 7 7 8 8 7 6 5 4 2 1 1 2 3 5 6 6 5 5 4 4 4 5 5 5 5 5 5 5 5 5 5 5 6 6 6 6 5 5
5 5 4 4 4 4 5 6 6 7 7 7 8 8 8 8 8 7 7 7 7 7 7 7 6 6 6 6 6 5 5 5 6 7 7 7 6 4 3 2 1 1 2 4 6 7 8 8 7 6 5 4 5 5 5 5 5 5 5 5 5 5 5 5 5 5 5 5 5
5 4 4 4 4 5 5 6 6 6 7 7 8 8 8 7 7 7 6 6 6 6 6 5 5 6 6 5 5 5 5 5 6 6 6 6 5 4 3 2 1 1 2 5 7 8 9 9 9 8 7 5 5 5 5 5 5 5 6 5 5 5 5 5 5 5 5 5 5
5 4 4 4 5 5 5 5 6 6 7 7 7 7 7 7 7 6 6 6 6 5 5 4 4 4 4 4 4 5 5 5 5 5 5 5 5 4 3 2 2 2 3 6 7 8 9 10 10 10 9 7 5 5 5 5 5 5 5 5 5 5 5 5 4 4 5 5 5
5 5 4 5 5 5 5 5 6 6 6 7 7 7 7 7 6 6 5 5 5 5 4 4 4 3 3 3 4 4 4 4 4 4 4 4 4 4 3 2 2 3 4 7 8 9 10 10 10 11 10 9 5 4 4 4 5 5 5 4 4 5 5 4 4 4 4 5 5
5 5 4 5 5 5 6 5 6 6 6 6 6 6 6 6 5 5 5 5 5 5 4 4 4 4 4 4 4 4 4 3 3 3 3 4 4 3 3 2 2 3 5 7 8 10 10 11 11 11 11 10 7 5 4 4 4 5 5 4 5 5 5 5 5 5 4 4 5
5 5 5 5 5 5 6 6 6 6 6 5 5 5 5 5 5 5 4 4 4 5 5 4 4 5 5 5 5 4 4 3 3 3 3 3 3 3 2 2 3 4 5 8 10 10 10 11 11 11 11 11 7 5 4 5 5 5 5 5 5 5 5 5 5 5 5 5 5
5 5 5 5 5 5 5 5 5 6 5 5 5 4 4 4 4 4 4 4 4 4 5 5 5 5 5 6 5 5 4 4 3 3 2 2 2 2 2 2 3 3 6 10 11 11 11 11 12 12 12 11 8 6 5 6 6 6 6 6 6 6 5 5 5 5 5 5 5
5 5 5 5 5 5 5 5 5 5 5 5 4 4 4 4 4 4 4 4 4 4 4 4 5 5 5 6 6 5 5 4 4 3 3 1 0 1 2 2 2 4 8 11 11 11 11 12 12 12 12 11 7 6 6 6 6 6 6 6 6 5 5 6 5 5 5 5 5
5 5 5 5 5 5 5 5 5 5 5 5 4 3 3 3 4 4 4 4 3 3 3 3 4 4 4 5 5 5 5 5 4 4 3 2 2 2 3 2 3 6 10 12 12 12 12 12 12 12 12 10 7 5 6 7 6 6 6 6 5 5 5 6 6 6 5 5 5
5 5 5 4 5 5 5 5 5 5 5 5 4 3 3 3 3 4 4 4 3 3 3 3 3 4 4 4 5 5 6 6 6 5 5 4 5 5 5 4 5 8 11 13 12 12 12 12 12 12 11 9 6 5 6 7 7 7 7 6 6 6 6 6 6 5 5 4 4
5 5 5 5 5 5 5 5 5 5 5 5 4 3 3 3 3 3 3 4 3 3 3 3 3 4 4 5 5 5 6 6 6 6 7 7 7 7 7 6 6 9 12 13 13 12 12 12 12 12 10 7 5 5 5 7 7 7 7 6 6 5 5 5 5 5 4 4 4
5 5 5 5 5 5 5 5 5 5 5 5 3 3 2 2 3 3 3 3 3 3 3 3 3 4 4 5 5 5 6 7 7 7 8 8 8 7 7 6 7 8 11 12 12 11 12 12 12 11 9 6 5 5 5 6 6 6 6 6 5 5 4 4 5 5 5 4 4
5 5 5 5 5 5 5 5 5 5 5 4 3 2 1 2 2 3 3 3 2 2 2 2 3 3 3 4 4 5 6 7 8 8 8 8 8 8 7 6 6 7 8 10 10 10 11 11 11 10 8 5 5 5 5 5 5 5 5 5 4 4 4 4 4 4 5 5 6
5 5 5 5 5 5 5 5 5 5 5 4 3 2 1 1 2 2 2 3 2 2 2 2 2 3 3 4 4 5 6 7 8 8 8 8 8 8 7 6 6 6 6 8 8 9 10 10 10 9 8 6 5 4 5 5 5 5 5 4 4 4 4 4 4 4 4 5 7
5 5 5 5 5 5 5 5 5 5 4 3 3 2 1 1 1 2 2 2 2 2 2 2 2 3 3 4 5 5 6 7 7 7 8 7 8 8 8 7 6 5 5 6 8 9 9 10 9 9 7 5 4 4 4 4 5 5 4 4 4 4 4 4 4 4 4 5 6
5 5 5 5 5 5 5 5 5 4 4 3 3 2 2 1 1 0 1 2 2 2 2 2 3 3 4 4 4 5 6 6 7 7 7 7 7 7 7 6 6 5 4 4 7 8 9 9 9 8 7 5 4 4 4 4 4 4 4 4 4 4 4 4 4 4 4 4 4
Wind_Direction
229 227 258 279 280 283 286 290 296 301 307 313 311 311 309 307 303 302 303 305 307 309 311 313 316 320 322 323 320 315 311 308 308 308 309 310 309 308 308 308 309 311 312 315 318 321 324 329 337 358 22 28 26 19 10 359 8 16 20 20 17 10 4 0 359 347 319 237 210
232 231 251 274 282 288 291 295 297 303 306 306 302 299 297 294 294 295 297 299 302 306 309 310 315 318 319 317 313 309 305 304 305 306 307 307 307 307 307 306 308 309 311 314 319 323 327 332 338 353 19 30 34 29 18 2 6 16 23 22 17 8 359 351 346 350 356 356 340
239 239 249 264 272 278 282 286 290 292 294 290 286 284 284 284 286 289 292 294 298 301 303 305 310 312 311 307 304 301 299 300 303 304 306 306 306 306 306 305 306 307 310 314 318 321 324 331 339 353 12 26 36 33 22 6 8 16 23 19 13 5 354 342 333 336 351 31 27
247 247 256 258 263 267 272 278 282 283 282 280 277 275 275 276 279 282 286 290 291 292 293 297 301 302 298 294 292 291 292 295 300 302 304 304 304 304 303 302 303 305 308 312 313 314 315 325 338 352 5 20 35 36 27 11 14 19 21 10 356 350 345 335 333 335 346 24 49
255 258 264 266 267 269 271 274 276 276 276 276 276 276 276 276 277 279 282 283 283 283 285 288 287 284 281 279 281 284 286 290 296 299 300 301 301 301 301 300 300 302 304 308 307 306 304 314 332 351 0 13 32 36 27 15 25 31 27 4 346 342 343 345 341 337 340 6 43
253 261 268 271 267 267 266 266 268 270 272 274 274 277 278 280 280 281 282 283 281 279 277 277 275 274 273 274 277 280 284 288 292 293 294 295 296 297 297 296 297 298 301 304 304 301 298 304 326 343 348 1 29 30 23 19 42 52 49 20 348 342 346 353 346 341 346 12 44
249 259 267 269 268 266 266 266 267 270 273 275 275 276 277 279 280 281 281 281 281 279 277 275 273 274 276 278 280 283 288 294 294 293 292 291 291 292 293 293 294 296 298 301 302 301 299 309 333 333 323 323 16 25 21 22 47 61 60 38 356 347 351 356 347 346 358 25 47
254 258 260 264 268 269 270 270 272 274 275 276 276 276 277 278 279 280 281 281 281 281 281 280 278 278 279 281 284 289 295 300 300 299 295 290 288 288 289 290 291 293 295 299 300 299 298 309 333 332 295 280 49 45 35 30 47 57 59 43 7 357 2 10 2 3 13 33 49
259 258 258 263 268 271 272 273 274 274 274 273 273 276 278 280 280 282 283 283 283 284 284 284 283 283 284 285 290 296 301 304 304 302 299 292 288 286 286 287 289 291 294 297 296 295 293 298 318 319 274 267 84 64 51 42 54 58 55 37 14 9 18 31 25 22 27 40 52
257 257 258 263 265 266 267 269 270 270 270 271 274 277 280 284 285 284 283 282 283 284 286 287 290 291 292 293 298 301 304 304 305 304 303 297 290 285 283 283 286 289 292 294 291 288 286 281 216 109 74 55 67 64 57 51 60 62 57 28 6 16 42 53 49 42 39 43 54
260 259 258 260 261 261 261 260 265 266 268 271 275 279 282 285 284 283 282 283 284 285 288 292 295 297 298 299 301 303 304 305 306 306 305 301 294 287 282 279 281 284 286 287 282 278 274 255 159 114 90 68 69 69 68 65 68 70 65 26 345 1 54 66 65 61 54 45 55
265 265 264 263 263 263 261 257 263 265 266 269 275 280 282 282 283 285 287 289 288 289 291 294 296 296 297 296 298 300 303 304 305 306 305 303 297 291 284 280 279 279 278 276 271 266 256 230 168 127 106 89 85 90 97 101 100 99 98 76 336 351 40 59 66 67 63 47 51
270 272 272 270 268 266 264 262 265 267 269 274 282 287 289 288 291 294 295 294 292 292 292 293 291 291 290 292 295 298 301 302 303 303 303 302 300 296 291 285 281 276 271 264 262 255 241 216 177 147 127 113 108 110 122 134 137 137 135 126 43 16 28 39 50 58 60 50 42
273 275 275 275 274 273 272 272 275 278 283 289 292 295 297 297 300 301 299 295 292 290 289 288 287 286 287 290 294 297 299 299 299 299 299 300 300 300 298 293 285 276 264 251 254 246 232 209 185 160 143 132 123 117 116 128 137 139 136 126 90 48 35 34 39 47 54 54 40
275 276 276 277 279 280 281 282 284 288 292 296 297 299 301 301 301 301 298 293 289 286 285 285 285 286 287 290 293 295 297 297 297 297 298 298 300 301 302 297 288 276 258 241 246 242 230 204 180 153 138 130 121 107 93 91 99 103 106 104 93 73 57 49 45 49 53 57 46
275 278 279 281 284 285 287 288 289 292 294 296 298 299 299 298 296 295 292 289 286 283 282 284 286 287 288 290 291 292 293 294 295 295 296 298 300 303 302 299 289 275 253 235 234 234 231 177 84 94 102 106 100 91 81 79 79 76 70 64 60 64 70 73 68 65 63 66 64
274 277 280 283 286 289 291 292 293 292 293 294 296 296 294 293 291 288 288 288 286 285 284 284 286 287 288 289 289 289 290 291 293 294 295 297 300 302 301 298 287 271 246 228 213 193 123 67 56 63 73 82 82 79 76 76 74 69 60 49 36 31 46 73 81 82 81 81 84
271 276 280 284 287 290 292 292 291 289 289 291 293 292 291 289 287 285 284 285 284 284 285 285 285 286 287 288 288 287 287 288 291 293 295 296 298 299 298 294 282 263 232 210 180 147 121 98 84 76 75 76 76 75 73 72 69 63 56 43 27 14 14 30 59 78 87 91 92
269 275 280 284 287 289 289 288 287 287 288 288 289 289 287 285 284 284 282 282 282 282 283 284 283 284 284 286 287 286 286 285 289 292 294 296 298 298 296 291 277 247 195 168 147 132 122 112 103 95 90 87 86 82 77 73 68 61 51 40 23 11 3 5 21 44 66 80 83
265 271 276 279 282 283 283 283 284 286 287 287 287 287 286 284 282 281 280 281 282 282 281 279 280 280 282 284 285 285 285 283 286 290 293 296 298 298 296 288 270 223 161 143 136 129 123 116 110 105 103 103 102 96 88 81 73 64 54 41 24 10 3 2 15 31 47 59 64
261 265 268 271 273 275 277 280 283 284 284 284 285 286 286 285 282 280 279 281 281 280 277 275 275 276 278 280 282 283 283 282 284 287 291 294 295 295 293 284 264 205 152 142 136 130 125 120 116 114 112 113 111 105 98 90 82 72 62 50 34 18 9 5 16 27 38 46 49
257 260 263 266 268 273 278 282 283 283 284 284 286 288 289 288 286 283 280 279 279 277 275 273 272 272 273 274 277 279 282 283 283 285 287 290 292 291 288 279 254 193 156 145 138 131 124 120 117 117 117 117 111 106 101 97 92 84 75 63 49 35 23 15 17 21 27 34 40
254 256 259 261 267 275 282 286 286 287 287 289 290 291 291 290 287 284 281 279 278 277 276 274 272 270 269 269 271 275 280 283 284 283 284 285 286 286 284 277 245 186 160 147 138 131 125 119 118 118 117 116 110 105 101 100 98 94 86 77 66 53 41 29 24 22 22 25 32
252 253 254 258 267 276 284 288 290 291 291 292 292 292 291 289 287 285 283 281 281 280 279 276 274 271 270 269 269 272 276 281 284 285 285 284 284 283 282 279 243 178 155 145 143 138 133 125 122 120 117 113 108 103 101 100 99 98 94 89 81 71 58 45 36 31 27 23 26
250 250 251 255 266 276 283 289 290 292 293 294 293 292 291 290 289 288 287 286 284 283 281 278 276 274 271 270 268 268 271 277 282 285 286 286 284 282 280 277 243 179 157 153 150 145 138 134 130 125 119 113 108 103 100 97 96 95 95 93 91 85 76 63 51 42 34 28 25
249 249 252 255 266 276 282 286 289 291 294 296 296 295 293 292 291 290 289 288 287 286 283 281 278 278 277 274 272 270 270 273 277 280 281 282 281 279 274 264 236 193 169 166 157 149 141 135 129 124 119 114 111 107 103 97 93 90 89 87 88 87 84 77 65 53 43 35 29
250 252 255 260 269 275 279 282 286 291 294 298 298 297 295 294 292 291 291 291 291 289 287 283 281 283 285 282 279 275 272 270 270 271 272 273 272 269 263 251 233 205 185 176 161 150 140 132 125 121 116 110 108 108 106 101 94 89 85 82 81 80 80 79 73 64 53 42 34
251 253 257 265 271 274 277 282 287 291 295 298 299 298 297 295 293 293 295 297 299 299 296 293 290 290 290 289 284 279 273 267 265 265 265 266 264 260 254 243 231 211 194 180 161 146 135 127 123 118 113 105 101 101 102 101 96 90 85 81 78 76 76 75 71 66 59 50 43
250 252 257 265 271 275 280 284 287 290 292 295 296 297 297 296 294 296 301 306 309 309 308 305 305 306 305 304 296 288 280 273 268 266 266 266 262 257 250 239 231 216 198 179 155 140 130 125 121 117 111 104 97 95 96 99 96 91 87 82 78 76 74 72 68 64 61 58 53
248 250 255 263 271 276 280 283 286 288 290 291 293 296 297 298 298 301 307 312 313 313 313 312 316 320 321 317 310 302 294 284 276 270 265 261 256 250 244 234 235 220 197 169 145 133 127 123 120 115 109 103 97 94 93 95 93 91 88 84 81 79 78 76 71 67 64 63 61
246 248 253 261 270 275 279 282 285 286 287 287 290 294 298 301 302 304 308 311 312 315 317 321 326 330 331 329 323 317 309 302 293 281 266 256 248 241 232 227 233 216 180 149 134 127 123 120 116 112 108 103 100 98 96 95 93 90 88 85 82 81 81 80 75 72 69 68 69
245 246 251 259 268 274 278 281 283 284 283 283 287 293 299 302 301 302 304 308 314 319 325 331 337 341 341 339 334 329 324 321 315 304 286 257 233 215 207 211 216 178 145 132 125 121 117 114 112 109 107 104 103 101 100 98 93 89 85 80 79 79 81 84 82 79 75 74 75
242 244 248 256 265 272 277 280 282 281 280 280 285 291 298 302 302 304 307 312 318 324 329 337 342 345 345 342 338 335 333 334 332 326 321 311 192 161 163 172 154 131 124 122 118 115 112 110 108 107 107 106 104 103 100 98 93 87 82 78 77 78 80 84 86 85 82 81 81
238 240 244 252 263 271 277 281 280 279 278 279 283 290 298 304 306 308 312 319 322 325 330 337 342 345 345 344 341 341 343 347 348 349 352 9 61 92 101 102 106 113 116 115 113 111 109 108 107 107 106 105 103 100 97 94 90 86 84 82 81 80 81 83 84 85 85 86 87
232 235 242 251 260 269 275 278 277 275 274 275 280 288 298 303 302 304 310 321 325 329 335 343 347 352 354 353 350 351 354 357 1 7 15 31 54 69 76 79 93 106 110 108 107 107 107 107 107 107 105 103 99 95 92 90 87 86 86 86 85 84 84 85 84 84 84 84 87
227 230 238 248 257 264 269 273 272 271 269 270 276 285 297 303 299 300 307 321 327 337 348 355 0 5 7 6 2 1 1 2 10 18 28 38 50 58 64 68 83 96 101 102 103 105 106 108 108 107 105 101 97 92 90 89 87 86 85 85 85 85 85 86 86 84 81 78 77
224 227 233 243 251 258 263 267 267 266 265 266 270 277 290 300 298 302 311 326 334 344 356 4 10 13 13 12 10 7 6 8 17 25 33 39 46 52 56 59 70 82 91 97 101 104 106 107 107 105 104 101 98 94 91 89 88 87 85 84 83 82 82 84 84 82 79 74 70
221 224 229 237 245 252 257 261 260 260 261 262 263 266 276 293 296 305 317 333 338 347 358 10 14 15 15 18 19 17 16 17 23 29 34 37 41 45 48 51 57 69 81 93 98 102 103 104 103 103 102 101 99 96 94 91 91 91 90 87 84 78 74 74 75 75 74 74 75
220 222 226 232 239 247 252 256 256 256 257 259 258 255 258 277 290 304 318 332 337 347 0 17 17 15 20 32 35 32 27 25 26 29 32 35 37 39 42 44 47 57 75 91 97 99 99 99 100 101 100 97 95 94 94 95 96 97 96 94 89 80 71 65 65 63 64 67 75
217 219 223 227 233 240 247 252 252 252 251 252 248 239 231 234 269 298 321 339 346 354 9 27 23 23 31 45 49 44 37 31 27 27 29 31 35 37 38 38 36 44 65 92 98 98 97 97 99 99 97 90 87 90 94 97 101 101 101 98 93 85 75 63 59 56 52 50 61
213 216 220 225 228 234 240 247 249 249 246 240 231 217 203 193 216 316 351 7 10 11 20 35 35 36 41 50 56 54 48 41 31 27 27 29 33 35 35 32 27 25 43 87 98 98 97 99 102 103 101 92 85 88 95 101 104 105 104 100 95 90 82 71 61 52 43 33 30